#timestamp,LO_Frequency,Hit,StdDev 
1566842415.4,286047000.5,N
1566842435.2,286046996.9,N
1566842455.1,286046998.9,N
1566842456.0,286046998.9,N
1566842475.8,286046999.9,N
1566842495.6,286046999.8,N
1566842515.5,286046998.4,N
1566842535.3,286047000.4,N
1566842555.1,286047002.8,N
1566842575.9,286047000.9,N
1566842595.7,286046999.3,N
1566842615.5,286047000.6,N
1566842635.4,286046998.2,N
1566842655.2,286046999.4,N
1566842675.0,286046997.0,N
1566842675.9,286046997.0,N
1566842695.8,286046997.9,N
1566842715.6,286046995.1,Y
1566842735.4,286046996.7,P
1566842755.3,286046997.1,N
1566842775.1,286046997.7,N
1566842795.8,286046999.0,N
1566842815.7,286047000.8,N
1566842835.5,286047000.4,N
1566842855.3,286046999.9,N
1566842875.2,286046998.2,N
1566842895.0,286046999.1,N
1566842895.9,286046999.1,N
1566842915.7,286046997.8,N
1566842935.6,286046997.0,N
1566842955.4,286046995.4,Y
1566842975.2,286046995.0,P
1566842995.1,286046995.7,N
1566842996.0,286046995.7,N
1566843015.8,286046996.4,N
1566843035.7,286046993.7,Y
1566843055.5,286047000.6,P
1566843075.3,286047000.4,N
1566843095.1,286047002.3,N
1566843115.9,286047003.7,N
1566843135.7,286047004.1,N
1566843155.5,286047002.2,N
1566843175.4,286047002.8,N
1566843195.2,286047000.3,N
1566843215.0,286047001.0,N
1566843215.9,286047001.0,N
1566843235.8,286047002.7,N
1566843255.6,286047002.4,N
1566843275.4,286047000.8,N
1566843295.3,286046999.9,N
1566843315.1,286047002.0,N
1566843335.8,286047003.7,N
1566843355.7,286047000.5,N
1566843375.5,286047000.8,N
1566843395.3,286047001.1,N
1566843415.2,286047002.4,N
1566843435.0,286047002.0,N
1566843435.9,286047002.0,N
1566843455.7,286047000.2,N
1566843475.6,286047001.8,N
1566843495.4,286047002.3,N
1566843515.2,286047000.2,N
1566843535.1,286047004.0,N
1566843536.0,286047004.0,N
1566843555.8,286047003.6,N
1566843575.6,286047002.9,N
1566843595.5,286047004.2,Y
1566843615.3,286047000.2,P
1566843635.1,286047000.1,N
1566843655.9,286047000.1,N
1566843675.7,286047000.5,N
1566843695.5,286046999.8,N
1566843715.4,286047002.2,Y
1566843735.2,286046999.7,P
1566843755.0,286047002.5,P
1566843755.9,286047002.5,N
1566843775.8,286047001.4,N
1566843795.6,286047002.0,N
1566843815.4,286047003.8,Y
1566843835.3,286047001.0,P
1566843855.1,286047001.0,P
1566843875.8,286046998.7,P
1566843895.7,286046998.4,N
1566843915.5,286046999.2,N
1566843935.3,286046997.2,N
1566843955.2,286046996.6,N
1566843975.0,286046998.2,N
1566843975.9,286046998.2,N
1566843995.7,286046998.6,N
1566844015.6,286047000.0,N
1566844035.4,286046998.1,N
1566844055.2,286046998.6,N
1566844075.1,286046999.1,N
1566844076.0,286046999.1,N
1566844095.8,286046997.6,N
1566844115.6,286046995.0,Y
1566844135.5,286047001.2,P
1566844155.3,286046999.7,N
1566844175.1,286047002.6,N
1566844195.9,286047002.7,N
1566844215.7,286046999.8,N
1566844235.5,286047002.3,N
1566844255.4,286047001.6,N
1566844275.2,286047001.5,N
1566844295.0,286047001.3,N
1566844295.9,286047001.3,N
1566844315.8,286047001.7,N
1566844335.6,286047001.4,N
1566844355.4,286047004.1,Y
1566844375.3,286047001.8,P
1566844395.1,286047000.4,N
1566844415.8,286047002.0,P
1566844435.7,286047000.4,N
1566844455.5,286047000.8,N
1566844475.3,286047000.8,N
1566844495.2,286047001.1,N
1566844515.0,286047001.0,N
1566844515.9,286047001.0,N
1566844535.7,286046998.5,Y
1566844555.6,286046997.1,P
1566844575.4,286046997.4,N
1566844595.2,286046997.6,N
1566844615.1,286046995.7,N
1566844616.0,286046995.7,N
1566844635.8,286046995.8,N
1566844655.6,286046993.7,Y
1566844675.5,286046999.2,P
1566844695.3,286047000.8,N
1566844715.1,286047002.5,N
1566844735.9,286047000.6,N
1566844755.7,286047001.0,N
1566844775.5,286046999.1,N
1566844795.4,286046998.9,N
1566844815.2,286046996.7,N
1566844835.0,286046998.0,N
1566844835.9,286046998.0,N
1566844855.8,286046993.4,Y
1566844875.6,286046996.8,P
1566844895.4,286046998.7,N
1566844915.3,286046998.4,N
1566844935.1,286047001.1,N
1566844955.8,286047001.1,N
1566844975.7,286047000.6,N
1566844995.5,286047001.4,N
1566845015.3,286047002.1,N
1566845035.2,286047001.6,N
1566845055.9,286047000.5,N
1566845075.7,286047001.1,N
1566845095.6,286046998.6,N
1566845115.4,286046998.2,N
1566845135.2,286046999.9,N
1566845155.1,286046998.2,N
1566845156.0,286046998.2,N
1566845175.8,286046996.6,N
1566845195.6,286046997.3,N
1566845215.5,286046997.3,N
1566845235.3,286046997.8,N
1566845255.1,286046997.4,N
1566845275.9,286046997.1,N
1566845295.7,286047001.2,N
1566845315.5,286047000.6,N
1566845335.4,286047001.2,N
1566845355.2,286047000.3,N
1566845375.0,286046999.0,N
1566845375.9,286046999.0,N
1566845395.8,286047001.1,N
1566845415.6,286046998.1,N
1566845435.4,286047000.5,N
1566845455.3,286046998.8,N
1566845475.1,286046999.0,N
1566845476.0,286046999.0,N
1566845495.8,286046996.7,N
1566845515.7,286046998.6,N
1566845535.5,286047000.7,N
1566845555.3,286047002.4,N
1566845575.2,286047001.9,N
1566845595.9,286047002.1,N
1566845615.7,286046999.5,N
1566845635.6,286046997.1,N
1566845655.4,286046996.8,N
1566845675.2,286047001.2,N
1566845695.1,286046998.7,N
1566845696.0,286046998.7,N
1566845715.8,286047001.2,N
1566845735.6,286046997.4,N
1566845755.5,286046997.1,N
1566845775.3,286046996.8,N
1566845795.1,286046995.5,N
1566845815.9,286046997.2,N
1566845835.7,286046997.6,N
1566845855.5,286046997.3,N
1566845875.4,286046996.5,N
1566845895.2,286046999.2,N
1566845915.0,286046997.6,N
1566845915.9,286046997.6,N
1566845935.8,286046995.7,N
1566845955.6,286046997.9,N
1566845975.4,286046997.0,N
1566845995.3,286047011.9,Y
